[[{"header":{"parameterUnit":"m.s-1","parameterCategory":1,"la1":30.2991,"la2":30.254,"lo1":-89.0895,"lo2":-89.0444,"dy":0.0017,"dx":0.0017,"nx":28,"ny":28,"refTime":"2024-04-02T09:00:00:Z","depth":0,"parameterNumber":2,"parameterNumberName":"U-component_of_WINDS"},"data":[0,0,0,0,0,0,0,0,0,0,0,0,0,0,0,0,0,0,0,0,0,0,0,0,0,0,0,0,0,0,0,0,0,0,0,0,0,0,0,0,0,0,0,0,0,0,0,0,0,0,0,0,0,0,0,0,0,0,5.2235,5.2236,0,5.2415,5.2417,5.2419,5.2352,5.2348,5.2344,5.234,5.253,5.2538,5.2547,0,0,0,0,0,0,0,0,0,0,0,0,0,5.1839,5.1847,5.2234,5.2237,5.2239,5.2414,5.2417,5.2419,5.2353,5.2348,5.2343,5.2339,5.2527,5.2537,5.2548,0,0,0,0,0,0,0,0,0,0,0,0,0,5.2014,5.1849,5.2234,5.2227,5.2228,5.2414,5.2417,5.242,5.2354,5.2348,5.2342,5.2336,5.2523,5.2536,5.2549,5.2754,0,0,5.259,5.2596,0,0,0,0,0,0,0,0,5.2005,5.2029,5.2226,5.2228,5.2229,5.2355,5.2347,5.2532,5.2356,5.2307,5.234,5.2333,5.2477,5.2493,5.2541,5.2763,5.2771,5.2591,5.2599,5.2605,5.2608,0,0,0,0,0,0,0,5.1993,5.2021,5.2306,5.2229,5.2231,5.2217,5.2235,5.2381,5.2424,5.231,5.2306,5.2328,5.2477,5.2528,5.2545,5.2774,5.2591,5.2602,5.2611,5.2616,5.3176,5.3182,0,0,0,0,0,0,5.1979,5.2011,5.23,5.2311,5.2099,5.2229,5.2249,5.2321,5.2422,5.2432,5.2333,5.2324,5.2509,5.2529,5.2551,5.28,5.2605,5.2617,5.2625,5.3169,5.3177,5.3185,0,0,0,0,0,0,5.1971,5.2005,5.2293,5.216,5.2196,5.2242,5.2323,5.2328,5.2379,5.2439,5.2447,5.2378,5.2505,5.2533,5.2704,5.2805,5.2623,5.2635,5.3161,5.3171,5.3181,5.3297,0,0,0,0,0,0,5.196,5.2003,5.2079,5.2162,5.2203,5.2442,5.2329,5.2335,5.2402,5.2392,5.2483,5.2492,5.2502,5.2685,5.2718,5.282,5.2645,5.3152,5.3165,5.3178,5.3284,5.331,5.3332,0,0,0,0,0,5.1946,5.2105,5.2084,5.2119,5.23,5.2447,5.2471,5.2477,5.241,5.2489,5.2528,5.249,5.2788,5.2703,5.2739,5.2847,5.3146,5.3162,5.3177,5.3274,5.3305,5.3331,0,0,0,0,0,0,5.2035,5.2116,5.2093,5.2284,5.2359,5.2436,5.2535,5.251,5.2607,5.2594,5.2599,5.262,5.2798,5.2839,5.2743,5.3052,5.2957,5.2981,5.3019,5.3049,5.3072,5.306,5.2657,0,0,0,0,0,5.2076,5.2188,5.2253,5.2416,5.2455,5.2489,5.2553,5.2552,5.263,5.2662,5.2714,5.2793,5.2905,5.2979,5.3085,5.3289,5.331,5.3382,5.3406,5.3425,5.3446,5.356,5.3594,5.3236,5.3236,5.3235,0,0,5.2164,5.2222,5.2293,5.2435,5.2493,5.2611,5.2516,5.2644,5.2732,5.2682,5.2848,5.2889,5.2978,5.3167,5.3254,5.3208,5.3549,5.3445,5.346,5.3471,5.358,5.3613,5.3644,5.3246,5.3244,5.3243,0,0,5.2384,5.2438,5.2581,5.2641,5.2729,5.2751,5.2786,5.2867,5.2892,5.3058,5.3024,5.3129,5.3321,5.3387,5.3445,5.3692,5.3662,5.3726,5.3852,5.3963,5.3991,5.4016,5.4107,5.4139,5.3747,5.3747,5.3747,0,5.2483,5.2656,5.2657,5.2789,5.2854,5.2813,5.2959,5.3017,5.3137,5.3184,5.313,5.3372,5.3429,5.3635,5.3695,5.3743,5.3784,5.3717,5.3986,5.4012,5.4035,5.4122,5.4156,5.3754,5.3754,5.3753,5.3752,0,5.2774,5.2896,5.3,5.3116,5.3193,5.3331,5.3355,5.3432,5.3424,5.3452,5.3624,5.369,5.381,5.3859,5.3852,5.4065,5.4034,5.3984,5.3889,5.4077,5.4158,5.4191,5.3765,5.3763,5.376,5.3758,0,0,5.3057,5.3171,5.321,5.3263,5.3358,5.3453,5.359,5.3706,5.3774,5.3858,5.3976,5.4139,5.4094,5.4161,5.4161,5.4258,5.4453,5.4196,5.4199,5.4244,5.4695,5.4734,5.4772,5.4432,5.4439,5.4444,5.4688,0,5.3287,5.3525,5.3531,5.3751,5.3865,5.3828,5.3948,5.4021,5.4051,5.4153,5.4187,5.4304,5.4234,5.4274,5.4369,5.4409,5.4544,5.4391,5.4544,5.455,5.4525,5.4814,5.4856,5.5083,5.472,5.4725,5.4729,0,5.3587,5.368,5.3911,5.3992,5.404,5.4147,5.4255,5.4352,5.4435,5.4451,5.4526,5.4512,5.4655,5.4554,5.4752,5.4648,5.4711,5.474,5.4749,5.4766,5.4652,5.4841,5.5155,5.519,5.4779,5.4775,5.4771,0,5.3773,5.3956,5.4118,5.4164,5.4262,5.4339,5.4383,5.4459,5.453,5.4625,5.4671,5.4782,5.4843,5.493,5.4948,5.4872,5.5148,5.5047,5.5167,5.5167,5.5228,5.5225,5.556,5.5265,5.5264,5.5264,5.5263,0,5.403,5.4174,5.4203,5.4304,5.4464,5.447,5.4629,5.4668,5.4737,5.4846,5.482,5.4924,5.494,5.5048,5.5063,5.5226,5.5253,5.5272,5.5275,5.5276,5.5274,5.5319,5.5304,5.5273,5.5271,5.5269,5.5267,0,5.4266,5.4291,5.4466,5.4544,5.4567,5.4683,5.475,5.4848,5.4874,5.5013,5.5046,5.509,5.5216,5.5241,5.539,5.5401,5.5596,5.5582,5.5568,5.5567,5.5687,5.5676,5.6064,5.6117,5.5785,5.5788,5.5791,0,5.443,5.454,5.4629,5.47,5.4748,5.4861,5.4933,5.4943,5.5019,5.5122,5.5208,5.533,5.5429,5.5632,5.5679,5.5793,5.5783,5.5912,5.5801,5.5799,5.5789,5.5783,5.5795,5.5934,5.5937,5.594,5.5942,0,5.472,5.4727,5.4829,5.4938,5.5023,5.511,5.5191,5.5251,5.5272,5.5359,5.5487,5.5564,5.5716,5.5839,5.5954,5.6002,5.5978,5.5977,5.6011,5.6014,5.6003,5.6013,5.5629,5.5968,5.5966,5.5964,5.5962,5.5961,5.4926,5.5023,5.5101,5.5217,5.528,5.5357,5.5453,5.5492,5.5598,5.5722,5.5721,5.5862,5.5944,5.6095,5.615,5.6262,5.6222,5.6271,5.6284,5.6297,5.6309,5.5983,5.6283,5.6282,5.6281,5.6281,5.628,0,5.5217,5.5265,5.5372,5.5487,5.5579,5.5545,5.5634,5.5715,5.5838,5.5915,5.6013,5.6161,5.6281,5.6337,5.6455,5.6534,5.6526,5.6565,5.6561,5.6573,5.6336,5.6296,5.657,5.657,5.657,5.657,5.657,5.657,5.5379,5.5541,5.5558,5.5751,5.5799,5.5935,5.599,5.6062,5.6124,5.629,5.6389,5.6424,5.6494,5.6617,5.6727,5.674,5.6787,5.6832,5.684,5.6619,5.6589,5.6561,5.6524,5.6841,5.6841,5.7068,5.707,5.7072]},{"header":{"parameterUnit":"m.s-1","parameterCategory":1,"la1":30.2991,"la2":30.254,"lo1":-89.0895,"lo2":-89.0444,"dy":0.0017,"dx":0.0017,"nx":28,"ny":28,"refTime":"2024-04-02T09:00:00:Z","depth":0,"parameterNumber":3,"parameterNumberName":"V-component_of_WINDS"},"data":[0,0,0,0,0,0,0,0,0,0,0,0,0,0,0,0,0,0,0,0,0,0,0,0,0,0,0,0,0,0,0,0,0,0,0,0,0,0,0,0,0,0,0,0,0,0,0,0,0,0,0,0,0,0,0,0,0,0,-3.8357,-3.8359,0,-3.8565,-3.8568,-3.857,-3.8579,-3.8577,-3.8574,-3.8572,-3.8789,-3.8797,-3.8805,0,0,0,0,0,0,0,0,0,0,0,0,0,-3.7971,-3.7978,-3.8357,-3.8359,-3.8362,-3.8565,-3.8568,-3.8571,-3.858,-3.8577,-3.8574,-3.8571,-3.8786,-3.8796,-3.8806,0,0,0,0,0,0,0,0,0,0,0,0,0,-3.8155,-3.798,-3.8356,-3.8391,-3.8396,-3.8564,-3.8568,-3.8571,-3.858,-3.8577,-3.8573,-3.857,-3.8783,-3.8795,-3.8807,-3.8956,0,0,-3.8844,-3.8849,0,0,0,0,0,0,0,0,-3.8144,-3.8169,-3.8383,-3.8389,-3.8395,-3.8542,-3.8511,-3.8701,-3.8581,-3.8511,-3.8572,-3.8568,-3.871,-3.8728,-3.8776,-3.8966,-3.8975,-3.8845,-3.8852,-3.8858,-3.8861,0,0,0,0,0,0,0,-3.8131,-3.816,-3.8439,-3.8386,-3.8393,-3.8397,-3.8419,-3.8547,-3.8629,-3.8516,-3.8518,-3.8542,-3.8713,-3.8764,-3.8781,-3.8979,-3.8845,-3.8856,-3.8863,-3.8868,-3.9304,-3.9308,0,0,0,0,0,0,-3.8111,-3.8149,-3.8433,-3.8446,-3.8258,-3.8407,-3.8432,-3.8499,-3.8627,-3.8643,-3.8545,-3.8542,-3.8745,-3.8767,-3.8788,-3.8973,-3.8858,-3.8869,-3.8876,-3.93,-3.9305,-3.931,0,0,0,0,0,0,-3.8103,-3.8137,-3.8424,-3.8298,-3.8335,-3.8418,-3.8493,-3.8505,-3.8556,-3.8649,-3.8664,-3.8582,-3.8743,-3.8771,-3.8914,-3.898,-3.8874,-3.8885,-3.9295,-3.9301,-3.9307,-3.9341,0,0,0,0,0,0,-3.8092,-3.8133,-3.819,-3.8299,-3.8341,-3.8546,-3.8497,-3.8512,-3.8576,-3.8574,-3.8687,-3.8703,-3.8742,-3.8896,-3.8926,-3.8995,-3.8895,-3.9289,-3.9298,-3.9305,-3.9335,-3.9348,-3.9359,0,0,0,0,0,-3.8078,-3.8192,-3.8193,-3.8227,-3.8414,-3.8549,-3.8574,-3.8616,-3.8582,-3.864,-3.87,-3.8699,-3.8968,-3.8911,-3.8945,-3.9018,-3.9285,-3.9295,-3.9305,-3.9329,-3.9345,-3.9359,0,0,0,0,0,0,-3.8089,-3.8206,-3.8209,-3.8361,-3.8445,-3.8551,-3.8625,-3.8632,-3.8728,-3.8722,-3.8771,-3.8797,-3.8939,-3.8993,-3.8927,-3.917,-3.9123,-3.914,-3.913,-3.9146,-3.9158,-3.9143,-3.8905,0,0,0,0,0,-3.8109,-3.8208,-3.8306,-3.8431,-3.8473,-3.8542,-3.8603,-3.8628,-3.8717,-3.8753,-3.8824,-3.8912,-3.9016,-3.9084,-3.9185,-3.9342,-3.9368,-3.9409,-3.9422,-3.9431,-3.9446,-3.9535,-3.9555,-3.9341,-3.9341,-3.9341,0,0,-3.8152,-3.8228,-3.8288,-3.8435,-3.8503,-3.8606,-3.8572,-3.8682,-3.876,-3.877,-3.891,-3.8965,-3.9066,-3.9217,-3.9287,-3.9267,-3.951,-3.9444,-3.9451,-3.946,-3.9547,-3.9567,-3.9585,-3.9348,-3.9347,-3.9346,0,0,-3.8282,-3.8349,-3.8461,-3.853,-3.8633,-3.8679,-3.8705,-3.8811,-3.8847,-3.8988,-3.8998,-3.9092,-3.927,-3.9343,-3.9403,-3.9562,-3.9565,-3.9593,-3.9659,-3.9745,-3.9761,-3.9777,-3.9835,-3.9855,-3.9607,-3.9607,-3.9607,0,-3.8323,-3.8477,-3.8518,-3.8629,-3.8694,-3.8707,-3.8822,-3.8887,-3.9019,-3.9064,-3.9038,-3.9263,-3.9333,-3.9502,-3.954,-3.9588,-3.9622,-3.9581,-3.9755,-3.9771,-3.9786,-3.9842,-3.9863,-3.961,-3.961,-3.9609,-3.9609,0,-3.8522,-3.863,-3.8708,-3.8833,-3.8907,-3.9019,-3.9079,-3.9149,-3.9168,-3.9216,-3.936,-3.9444,-3.9563,-3.9604,-3.9624,-3.9777,-3.9761,-3.9745,-3.9699,-3.9808,-3.9862,-3.9884,-3.9614,-3.9613,-3.9612,-3.9611,0,0,-3.8666,-3.8813,-3.8841,-3.8899,-3.9014,-3.9099,-3.9212,-3.9327,-3.9387,-3.9478,-3.9575,-3.9726,-3.9712,-3.978,-3.9809,-3.9884,-4.0006,-3.9859,-3.9862,-3.9884,-4.0182,-4.0194,-4.0218,-4.0009,-4.0013,-4.0016,-4.0174,0,-3.881,-3.9011,-3.9051,-3.9226,-3.9326,-3.9341,-3.944,-3.9522,-3.9571,-3.9664,-3.9718,-3.9825,-3.9798,-3.9839,-3.9914,-3.9975,-4.0067,-3.9964,-4.0102,-4.0106,-4.0077,-4.0246,-4.0259,-4.0403,-4.0195,-4.0198,-4.0201,0,-3.9005,-3.91,-3.9284,-3.9386,-3.943,-3.9518,-3.9628,-3.9717,-3.9811,-3.9841,-3.9917,-3.9938,-4.0058,-4.0005,-4.0172,-4.0102,-4.016,-4.0199,-4.0206,-4.0221,-4.0161,-4.0267,-4.045,-4.0472,-4.0234,-4.0231,-4.0229,0,-3.9093,-3.9266,-3.9399,-3.9448,-3.9571,-3.9633,-3.9687,-3.9777,-3.9845,-3.9941,-3.9985,-4.0094,-4.0155,-4.0239,-4.0289,-4.0246,-4.0453,-4.0404,-4.0483,-4.0482,-4.0527,-4.0524,-4.0724,-4.0563,-4.0563,-4.0562,-4.0562,0,-3.9251,-3.9363,-3.9441,-3.9523,-3.965,-3.9696,-3.9821,-3.9875,-3.9955,-4.0049,-4.0068,-4.0156,-4.0216,-4.0313,-4.0353,-4.0486,-4.0513,-4.0542,-4.0552,-4.0541,-4.0538,-4.0581,-4.0573,-4.0568,-4.0567,-4.0566,-4.0565,0,-3.9371,-3.9427,-3.9573,-3.9677,-3.9706,-3.9795,-3.9885,-3.9966,-4.0015,-4.0134,-4.0164,-4.0241,-4.0356,-4.0414,-4.0558,-4.0584,-4.0736,-4.0738,-4.0704,-4.0708,-4.0784,-4.0776,-4.1019,-4.1054,-4.0869,-4.0871,-4.0872,0,-3.9469,-3.9555,-3.9669,-3.9732,-3.9788,-3.989,-3.9958,-4.0007,-4.0078,-4.0193,-4.026,-4.0376,-4.0472,-4.0655,-4.0725,-4.0836,-4.0842,-4.0919,-4.0859,-4.0846,-4.0845,-4.084,-4.0849,-4.0931,-4.0932,-4.0934,-4.0935,0,-3.9636,-3.966,-3.9757,-3.9864,-3.9945,-4.0032,-4.0118,-4.017,-4.0233,-4.0312,-4.0429,-4.0503,-4.065,-4.0765,-4.0881,-4.0938,-4.0949,-4.0953,-4.0978,-4.0969,-4.0946,-4.0961,-4.0735,-4.0948,-4.0947,-4.0946,-4.0945,-4.0944,-3.9749,-3.9828,-3.9919,-4.0028,-4.0097,-4.0177,-4.0259,-4.0317,-4.0415,-4.0538,-4.0561,-4.0686,-4.078,-4.0936,-4.0997,-4.1097,-4.108,-4.1115,-4.1124,-4.1133,-4.1137,-4.0928,-4.1118,-4.1118,-4.1117,-4.1117,-4.1117,0,-3.9919,-3.9979,-4.0077,-4.0197,-4.0282,-4.0282,-4.0378,-4.045,-4.0559,-4.0645,-4.0738,-4.0874,-4.0986,-4.1065,-4.1179,-4.1244,-4.1252,-4.1273,-4.1269,-4.1283,-4.1145,-4.1113,-4.1265,-4.1265,-4.1265,-4.1265,-4.1265,-4.1265,-4.0018,-4.015,-4.0185,-4.0353,-4.0413,-4.0534,-4.0589,-4.0664,-4.0732,-4.0883,-4.0976,-4.1025,-4.1109,-4.123,-4.1334,-4.1354,-4.1396,-4.1418,-4.1438,-4.1308,-4.1292,-4.1277,-4.1248,-4.1426,-4.1426,-4.1568,-4.157,-4.1571]}]]